Queretaro Airport,

2:43 PM CST on January 19, 2018 (GMT -0600)
Queretaro Airport

Weather History for MMQT - October, 2012

Change the Weather History Date:

Friday, October 12, 2012

  Actual Average Record
Temperature  
Mean Temperature 69 °F -  
Max Temperature 81 °F 73 °F 84 °F (2015)
Min Temperature 57 °F 50 °F 33 °F (2007)
Cooling Degree Days 4    
Growing Degree Days 19 (Base 50)    
Moisture  
Dew Point 49 °F    
Average Humidity 55    
Maximum Humidity 88    
Minimum Humidity 25    
Precipitation  
Precipitation 0.00 in - - ()
Sea Level Pressure  
Sea Level Pressure 30.24 in    
Wind  
Wind Speed 8 mph ()    
Max Wind Speed 21 mph    
Max Gust Speed -    
Visibility 7.8 miles    
Events      
Averages and records for this station are not official NWS values.
T = Trace of Precipitation, MM = Missing Value Source: Averaged Metar Reports

Daily Weather History Graph

Daily Weather History Graph

Search for Another Location

Airport or City:

Trip Planner

Search our weather history database for the weather conditions in past years. The results will help you decide how hot, cold, wet, or windy it might be!

Date:

Astronomy

Oct. 12, 2012 Rise Set
Actual Time 7:35 AM CDT 7:18 PM CDT
Civil Twilight 7:12 AM CDT 7:40 PM CDT
Nautical Twilight 6:47 AM CDT 8:06 PM CDT
Astronomical Twilight 6:21 AM CDT 8:32 PM CDT
Moon 4:41 AM CDT (10/12) 5:13 PM CDT (10/12)
Length of Visible Light 12h 28m
Length of Day
11h 43m
Waning Crescent, 10% of the Moon is Illuminated
Oct 12
Waning Crescent
Oct 15
New
Oct 21
First Quarter
Oct 29
Full
Nov 6
Last Quarter

Hourly Weather History & Observations

Time (CDT) Temp. Dew Point Humidity Pressure Visibility Wind Dir Wind Speed Gust Speed Precip Events Conditions
12:40 AM 61 °F 53 °F 68% 29.86 in 6 mi East 2.2 mph - -   Scattered Clouds
12:45 AM 55.4 °F 51.8 °F 88% 30.38 in 7.0 mi ESE 6.9 mph - N/A   Scattered Clouds
1:45 AM 55.4 °F 51.8 °F 88% 30.38 in 7.0 mi East 3.5 mph - N/A   Scattered Clouds
2:50 AM 57.2 °F 50.0 °F 77% 30.37 in 7.0 mi East 3.5 mph - N/A   Mostly Cloudy
3:40 AM 59 °F 53 °F 75% 29.93 in 6 mi SE 2.2 mph - -   Scattered Clouds
3:42 AM 57.2 °F 50.0 °F 77% 30.36 in 7.0 mi ENE 6.9 mph - N/A   Mostly Cloudy
4:45 AM 57.2 °F 50.0 °F 77% 30.36 in 6.0 mi ENE 9.2 mph - N/A   Mostly Cloudy
5:45 AM 57.2 °F 50.0 °F 77% 30.36 in 6.0 mi East 6.9 mph - N/A   Mostly Cloudy
6:40 AM 60 °F 53 °F 71% 29.94 in 6 mi East 20.1 mph - -   Partly Cloudy
6:45 AM 59.0 °F 51.8 °F 77% 30.35 in 6.0 mi ENE 9.2 mph - N/A   Mostly Cloudy
7:45 AM 57.2 °F 50.0 °F 77% 30.34 in 5.0 mi ENE 5.8 mph - N/A   Mostly Cloudy
8:45 AM 62.6 °F 44.6 °F 52% 30.38 in 6.0 mi ESE 6.9 mph - N/A   Mostly Cloudy
9:40 AM 63 °F 52 °F 58% 30.03 in 16 mi East 15.7 mph - -   Scattered Clouds
9:45 AM 64.4 °F 46.4 °F 52% 30.42 in 6.0 mi East 11.5 mph - N/A   Mostly Cloudy
10:45 AM 66.2 °F 48.2 °F 52% 30.41 in 7.0 mi ESE 11.5 mph - N/A   Mostly Cloudy
11:45 AM 71.6 °F 53.6 °F 53% 30.42 in 7.0 mi ENE 11.5 mph - N/A   Mostly Cloudy
12:45 PM 77.0 °F 48.2 °F 36% 30.36 in 7.0 mi ENE 13.8 mph - N/A   Mostly Cloudy
12:50 PM 76 °F 51 °F 31% 29.97 in 6 mi East 8.9 mph - -   Scattered Clouds
1:45 PM 77.0 °F 44.6 °F 32% 30.34 in 7.0 mi ESE 9.2 mph - N/A   Mostly Cloudy
2:45 PM 77.0 °F 44.6 °F 32% 30.32 in 10.0 mi East 17.3 mph - N/A   Scattered Clouds
3:45 PM 78.8 °F 46.4 °F 32% 30.30 in 10.0 mi ENE 20.7 mph - N/A   Scattered Clouds
3:50 PM 81 °F 51 °F 25% 29.81 in 16 mi East 8.9 mph - -   Scattered Clouds
4:45 PM 77.0 °F 44.6 °F 32% 30.29 in 10.0 mi ENE 20.7 mph - N/A   Scattered Clouds
5:45 PM 75.2 °F 44.6 °F 34% 30.28 in 10.0 mi ENE 17.3 mph - N/A   Scattered Clouds
6:45 PM 71.6 °F 46.4 °F 41% 30.28 in 10.0 mi NE 13.8 mph - N/A   Mostly Cloudy
6:50 PM 74 °F 54 °F 38% 29.76 in 12 mi East 8.9 mph - -   Scattered Clouds
7:45 PM 68.0 °F 44.6 °F 43% 30.30 in 8.0 mi NE 11.5 mph - N/A   Scattered Clouds
8:45 PM 66.2 °F 44.6 °F 46% 30.32 in 7.0 mi ENE 11.5 mph - N/A   Scattered Clouds
9:40 PM 66 °F 53 °F 54% 29.82 in 6 mi East 6.7 mph - -   Scattered Clouds
9:45 PM 64.4 °F 46.4 °F 52% 30.36 in 7.0 mi ENE 10.4 mph - N/A   Scattered Clouds
10:45 PM 62.6 °F 44.6 °F 52% 30.36 in 7.0 mi ENE 15.0 mph - N/A   Scattered Clouds
11:45 PM 60.8 °F 46.4 °F 59% 30.38 in 7.0 mi ENE 8.1 mph - N/A   Scattered Clouds